Regional Weather Roundup
Issued by NWS

Home | Current Version | Previous Version | Graphics & Text | Print | Product List | Glossary On
Versions: 1 2 3 4 5 6 7 8 9 10 11 12 13 14 15 16 17 18 19 20 21 22 23 24 25 26 27 28 29 30 31 32 33 34 35 36 37 38 39 40 41 42 43 44 45 46 47 48 49 50
000
ASUS43 KDMX 261108
RWRIA

WEATHER ROUNDUP FOR IOWA
NATIONAL WEATHER SERVICE DES MOINES IA
600 AM CDT FRI AUG 26 2016

NOTE: "FAIR" INDICATES FEW OR NO CLOUDS BELOW 12,000 FEET WITH NO
SIGNIFICANT WEATHER AND/OR OBSTRUCTIONS TO VISIBILITY.

* - THESE STATIONS ARE NOT NWS STATIONS...THUS NOT UNDER NWS
QUALITY CONTROL.  THEY ALSO DO NOT REPORT WEATHER SUCH
AS PRECIPITATION OR FOG.

IAZ001>003-012>014-020>022-031>034-043>046-261200-
   NORTHWEST IOWA

CITY           SKY/WX    TMP DP  RH WIND       PRES   REMARKS
CARROLL *        N/A     55  55 100 CALM      30.17R
CHEROKEE *       N/A     53  53 100 CALM      30.18R
DENISON *        N/A     54  54 100 CALM      30.15S FOG
LE MARS *        N/A     54  54 100 CALM      30.17S
ORANGE CITY *    N/A     57  54  88 E5        30.17R
SHELDON *        N/A     50  50 100 CALM      30.16S
SIOUX CITY       N/A     54  52  93 CALM      30.17R
SPENCER          N/A     50  48  93 CALM      30.18R FOG
STORM LAKE *     N/A     55  54  94 E3        30.18R
$$

IAZ055>058-069>071-079>083-090>094-261200-
   SOUTHWEST IOWA

CITY           SKY/WX    TMP DP  RH WIND       PRES   REMARKS
ATLANTIC *       N/A     57  55  94 N6        30.16S
AUDUBON *        N/A     55  54  94 CALM      30.19R
CLARINDA *       N/A     61  61 100 MISG      30.17R
COUNCIL BLFS *   N/A    N/A N/A N/A MISG        N/A
CRESTON *        N/A     63  59  88 NE8       30.16S
HARLAN  *        N/A     55  55 100 CALM      30.20R
LAMONI         CLOUDY    64  63  96 NE6       30.13S
RED OAK *        N/A     59  59 100 N6        30.16R
SHENANDOAH *     N/A     61 N/A N/A CALM      30.15R
$$

IAZ047>049-059>061-072>074-084-261200-
   CENTRAL IOWA

CITY           SKY/WX    TMP DP  RH WIND       PRES   REMARKS
AMES             N/A     59  59 100 CALM      30.16S
ANKENY *         N/A    N/A N/A N/A MISG        N/A
BOONE *          N/A     59  57  94 NE6       30.16R
CHARITON *       N/A     63  63 100 MISG      30.15F
DES MOINES     CLOUDY    64  60  87 NE7       30.14S
GRINNELL*        N/A     63  59  88 NE8       30.16S
KNOXVILLE *    CLOUDY    61  61 100 SW3       30.15R
MARSHALLTOWN     N/A     58  58 100 NE6       30.15S
NEWTON *         N/A     61  61 100 N8        30.15S
PERRY *          N/A     58  58  99 CALM      30.17R
$$

IAZ004>006-015-016-023>025-035-036-261200-
   NORTH CENTRAL IOWA

CITY           SKY/WX    TMP DP  RH WIND       PRES   REMARKS
ALGONA *         N/A     55  54  94 NE3       30.18R
ESTHERVILLE      N/A     50  50 100 NW3       30.17S
FORT DODGE *     N/A     55  52  88 CALM      30.18R
MASON CITY       N/A     52  52 100 CALM      30.19S
FOREST CITY *    N/A    N/A N/A N/A MISG        N/A
WEBSTER CITY *   N/A     55  55 100 CALM      30.16R
IOWA FALLS *     N/A     58  56  93 CALM      30.19R
$$

IAZ007>011-017>019-026>030-037>042-050>054-066-261200-
   NORTHEAST IOWA

CITY           SKY/WX    TMP DP  RH WIND       PRES   REMARKS
CEDAR RAPIDS   MOCLDY    60  60 100 N6        30.15R
CHARLES CITY *   N/A     55  55 100 CALM      30.18R
CLINTON *        N/A     61  60  97 N7        30.15R
DECORAH *        N/A     57  57 100 CALM      30.17R
DUBUQUE          N/A     61  59  93 NE3       30.18R
MONTICELLO *     N/A     57  57 100 CALM      30.16R FOG
WATERLOO         N/A     56  55  97 CALM      30.16R
$$

IAZ064-065-067-068-078-261200-
   EAST CENTRAL IOWA

CITY           SKY/WX    TMP DP  RH WIND       PRES   REMARKS
DAVENPORT        N/A     63  60  90 NE5       30.15R
IOWA CITY        N/A     65  60  84 NE7       30.15R
MT. PLEASANT * MOCLDY    67  67 100 CALM      30.14R
MUSCATINE *    MOCLDY    64  61  88 CALM      30.14R
QUAD CITIES      N/A     66  61  84 E5        30.14R
$$

IAZ062-063-075>077-085>089-095>099-261200-
   SOUTHEAST IOWA

CITY           SKY/WX    TMP DP  RH WIND       PRES   REMARKS
BURLINGTON       N/A     68  65  90 NE6       30.13R
FAIRFIELD *    CLOUDY    66  63  88 CALM      30.15R
FORT MADISON *   N/A     66  64  94 CALM      30.15R
KEOKUK *       LGT RAIN  68  66  94 NE5       30.12R
OSKALOOSA *      N/A     61  60  98 CALM      30.15R
CENTERVILLE *    N/A     64  63  94 CALM      30.17F
OTTUMWA        CLOUDY    64  62  93 NW3       30.15R
WASHINGTON *   CLOUDY    64  63  94 NE5       30.15R
$$

ABBREVIATIONS USED IN REMARKS
   TC - TEMPERATURES IN CELSIUS
  WCI - WIND CHILL INDEX
   HX - HEAT INDEX
  VSB - VISIBILITY
$$




USA.gov is the U.S. government's official web portal to all federal, state and local government web resources and services.